Regional Weather Roundup
Issued by NWS Little Rock, AR

Home | Current Version | Previous Version | Graphics & Text | Print | Product List | Glossary On
Versions: 1 2 3 4 5 6 7 8 9 10 11 12 13 14 15 16 17 18 19 20 21 22 23 24 25 26 27 28 29 30 31 32 33 34 35 36 37 38 39 40 41 42 43 44 45 46 47 48 49 50
000
ASUS44 KLZK 240205
RWRLZK

WEATHER ROUNDUP FOR ARKANSAS
NATIONAL WEATHER SERVICE LITTLE ROCK AR
900 PM CDT MON OCT 23 2017

NOTE: "FAIR" INDICATES FEW OR NO CLOUDS BELOW 12,000 FEET WITH NO
SIGNIFICANT WEATHER AND/OR OBSTRUCTIONS TO VISIBILITY.

ARZ001-003-010-029-240300-
NORTHWEST ARKANSAS

CITY           SKY/WX    TMP DP  RH WIND       PRES   REMARKS
FAYETTEVILLE   CLOUDY    59  35  40 NW13      30.10R
FORT SMITH     CLEAR     66  45  46 NW14G21   30.09R
HARRISON       CLEAR     59  40  49 NW10      30.05R
BENTONVILLE    MOCLDY    58  34  40 NW7       30.12R
ROGERS         CLOUDY    58  34  40 NW10      30.10R
SILOAM SPGS    CLOUDY    56  36  47 NW8       30.12R
SPRINGDALE     PTCLDY    61  32  33 NW12      30.11R
$$

ARZ004-005-016-240300-
NORTH CENTRAL ARKANSAS

CITY           SKY/WX    TMP DP  RH WIND       PRES   REMARKS
BATESVILLE     CLEAR     63  44  50 W5        29.98R
FLIPPIN        CLEAR     61  44  53 NW14G20   30.02R
MTN HOME       PTCLDY    58  46  64 CALM      30.00R
$$

ARZ040-041-240300-
WEST CENTRAL ARKANSAS

CITY           SKY/WX    TMP DP  RH WIND       PRES   REMARKS
MENA           PTCLDY    59  48  67 CALM      30.09S
MOUNT IDA      CLEAR     63  44  50 VRB5      30.05R
$$

ARZ009-017-025-026-028-240300-
NORTHEAST ARKANSAS

CITY           SKY/WX    TMP DP  RH WIND       PRES   REMARKS
CORNING        FAIR      63  48  59 NW10G16   29.91R
JONESBORO      CLEAR     66  47  50 NW13G24   29.92R
NEWPORT        PTCLDY    64  46  52 NW14      29.96R
WALNUT RIDGE   CLEAR     63  45  51 W12       29.94R
BLYTHEVILLE    CLEAR     62  48  60 SW9       29.88R
$$

ARZ022-023-033-042-044-240300-
CENTRAL ARKANSAS

CITY           SKY/WX    TMP DP  RH WIND       PRES   REMARKS
LITTLE ROCK    PTCLDY    68  47  46 NW13      30.00R
N LITTLE ROCK    N/A     65  48  53 CALM      30.03R
JACKSONVILLE   CLEAR     66  47  50 W6        30.00R
SEARCY         CLEAR     65  47  52 W3        29.99R
HOT SPRINGS    CLEAR     67  48  50 VRB7      30.04R
RUSSELLVILLE   CLEAR     61  47  59 W5        30.03R
CLINTON        FAIR      55  48  76 CALM      30.01R
$$

ARZ036-240300-
EAST ARKANSAS

CITY           SKY/WX    TMP DP  RH WIND       PRES   REMARKS
WEST MEMPHIS   CLEAR     61  47  59 SW6       29.91S
$$

ARZ050-053-066-070-073-240300-
SOUTHWEST ARKANSAS

CITY           SKY/WX    TMP DP  RH WIND       PRES   REMARKS
ARKADELPHIA    FAIR      56  52  86 NW5       30.03R
CAMDEN         CLEAR     54  50  87 CALM      30.01R
TEXARKANA      CLEAR     65  47  52 NW6       30.05R
EL DORADO      CLEAR     55  53  93 CALM      30.03R
DE QUEEN       CLEAR     59  50  72 CALM      30.06R
$$

ARZ056-057-069-240300-
SOUTHEAST ARKANSAS

CITY           SKY/WX    TMP DP  RH WIND       PRES   REMARKS
PINE BLUFF     CLEAR     61  47  59 W3        29.99R
STUTTGART      CLEAR     60  49  66 W9        29.98R
MONTICELLO     CLEAR     63  46  54 W6        30.00R

$$





USA.gov is the U.S. government's official web portal to all federal, state and local government web resources and services.